This demonstration page uses our WeatherBlox Daily Observations layout. Learn more.

Left ArrowRight Arrow

Hourly Observations for June 22, 2019

Temp ( °F °C ) Dew Point ( °F °C ) Humidity (%) Winds ( mph kmh ) Pressure ( in mb ) Visibility ( mi km ) Precip ( " mm )
12:53 am 00:53 Clear 66 18.9 64 17.8 93 93 N N/A 29.97 1015 10 16 N/A
1:53 am 01:53 Clear 67 19.4 65 18.3 93 93 N N/A 29.96 1015 10 16 N/A
2:53 am 02:53 Mostly Clear 68 20 64 17.8 87 87 N N/A 29.96 1015 10 16 N/A
3:53 am 03:53 Mostly Cloudy 68 20 62 16.7 81 81 ENE 5 7 29.97 1015 10 16 N/A
4:53 am 04:53 Mostly Cloudy 68 20 61 16.1 78 78 N N/A 29.99 1016 10 16 N/A
5:53 am 05:53 Partly Cloudy 65 18.3 61 16.1 87 87 E 6 9 29.99 1016 10 16 N/A
6:53 am 06:53 Partly Cloudy 65 18.3 61 16.1 87 87 E 3 6 30.01 1016 10 16 N/A
7:53 am 07:53 Mostly Cloudy 67 19.4 60 15.6 79 79 E 3 6 30.05 1018 10 16 N/A
8:53 am 08:53 Cloudy 68 20 60 15.6 76 76 VRB 5 7 30.06 1018 10 16 N/A
9:53 am 09:53 Mostly Cloudy 69 20.6 60 15.6 73 73 SE 3 6 30.05 1018 10 16 N/A
10:53 am 10:53 Cloudy 68 20 59 15 73 73 E 9 15 30.04 1017 10 16 N/A
11:53 am 11:53 Mostly Sunny 70 21.1 61 16.1 73 73 E 7 11 30.05 1018 10 16 N/A
12:53 pm 12:53 Cloudy 71 21.7 60 15.6 68 68 E 10 17 30.07 1018 10 16 N/A
1:53 pm 13:53 Cloudy 74 23.3 59 15 60 60 E 8 13 30.07 1018 10 16 N/A
2:53 pm 14:53 Cloudy 76 24.4 59 15 56 56 VRB 5 7 30.07 1018 10 16 N/A
3:53 pm 15:53 Mostly Cloudy 77 25 59 15 54 54 VRB 7 11 30.06 1018 10 16 N/A
4:53 pm 16:53 Mostly Cloudy 78 25.6 60 15.6 54 54 N N/A 30.08 1019 10 16 N/A
5:53 pm 17:53 Mostly Sunny 76 24.4 60 15.6 58 58 VRB 3 6 30.07 1018 10 16 N/A
6:53 pm 18:53 Sunny 76 24.4 62 16.7 62 62 N N/A 30.06 1018 10 16 N/A
7:53 pm 19:53 Sunny 75 23.9 60 15.6 60 60 E 8 13 30.02 1017 10 16 N/A
8:53 pm 20:53 Sunny 73 22.8 59 15 62 62 E 9 15 30.00 1016 10 16 N/A
9:53 pm 21:53 Clear 68 20 60 15.6 76 76 N N/A 30.02 1017 10 16 N/A
10:53 pm 22:53 Clear 64 17.8 61 16.1 90 90 N N/A 30.07 1018 10 16 N/A
11:53 pm 23:53 Clear 63 17.2 60 15.6 90 90 N N/A 30.07 1018 10 16 N/A

Powered by AerisWeather